Wind_Speed
52 54 57 61 62 62 64 66 66 65 65 66 66 65 65 65 65 65 66 67 67 67 67 67 67 68 68 67 67 66 66 66 66 66 66 66 65 65 64 63 61 60 59 59 59 59 60 59 59 58 56 55 54 54 54 53 52 52 52 53 54 54 55 55 56 55 55 55 55 54 54 54 54 54 55 56 57 57 58 58 59 59 58 58 58
55 56 59 62 64 64 64 64 63 62 62 63 65 67 67 67 67 67 67 67 67 67 68 68 69 69 69 68 68 67 67 67 67 67 67 66 66 65 64 63 62 61 60 61 61 61 61 60 60 59 58 56 54 53 53 54 54 54 54 55 55 56 56 56 57 57 57 56 56 56 55 55 55 55 56 57 57 57 58 58 58 58 58 58 58
61 60 61 64 66 66 67 66 62 58 59 62 66 69 69 68 69 69 68 68 68 68 68 69 69 69 68 68 68 67 67 67 67 67 67 66 66 65 65 64 64 63 62 63 63 63 62 61 61 60 58 57 55 53 53 54 55 56 56 57 57 57 57 57 58 58 58 58 58 58 57 57 57 57 58 58 58 58 59 59 59 59 59 59 58
66 65 65 67 68 68 69 67 63 59 59 62 67 69 69 67 68 69 70 70 70 70 70 71 70 70 69 69 68 68 66 66 66 66 66 66 66 66 66 66 66 66 66 65 65 65 64 62 61 60 58 56 55 54 53 53 55 57 58 59 59 59 59 59 60 60 60 60 60 60 59 59 59 59 59 59 59 59 59 59 59 58 58 57 57
69 70 70 71 72 71 70 69 66 62 61 63 67 69 69 69 68 68 70 71 72 73 73 73 72 72 71 71 71 70 69 68 68 68 68 68 68 68 68 67 67 67 67 66 65 64 62 60 58 58 58 56 56 56 56 55 56 57 59 60 61 61 61 61 62 62 62 62 62 61 61 61 61 61 61 61 60 59 59 58 58 57 57 56 55
73 73 74 75 76 77 77 76 75 71 67 67 70 73 73 72 72 71 71 73 74 75 75 75 75 75 74 74 74 73 72 72 71 70 70 70 69 69 68 67 66 65 64 63 62 61 59 57 57 58 59 59 59 59 59 59 58 58 59 61 63 64 64 63 63 64 64 64 63 62 62 62 63 63 64 63 62 61 60 60 59 58 57 56 56
75 76 77 78 79 80 81 81 81 80 75 71 73 77 78 77 76 74 73 74 75 76 77 77 77 78 78 78 78 77 76 75 73 72 71 70 70 69 67 66 64 63 61 61 60 60 60 60 59 60 61 62 62 61 61 61 60 60 60 62 64 65 66 66 66 66 66 65 65 64 64 65 65 66 66 66 65 64 63 61 60 59 57 57 56
80 80 81 82 82 83 83 83 83 83 82 78 75 78 79 80 80 78 76 75 76 77 78 78 79 79 80 80 81 81 80 77 75 74 73 72 70 69 67 66 64 62 61 61 62 63 63 63 62 61 62 64 64 63 63 62 62 62 61 62 64 65 67 68 68 68 68 68 68 67 67 68 69 70 70 69 68 66 64 62 60 59 58 56 57
83 84 85 86 87 87 87 88 87 87 87 86 83 82 81 81 81 82 80 78 77 78 78 78 78 79 80 81 83 83 83 81 79 76 74 72 71 70 70 69 68 65 64 64 65 66 66 64 63 62 63 65 66 65 65 64 64 64 63 64 64 66 68 69 70 71 71 71 71 70 70 71 73 73 71 70 68 67 65 62 60 59 57 56 58
87 86 86 86 87 88 89 90 91 90 90 89 86 84 82 81 81 83 84 82 81 79 79 78 77 77 78 80 83 84 84 82 80 78 76 73 72 71 72 72 71 69 68 68 69 68 66 65 63 63 64 66 67 67 67 67 67 67 67 67 67 67 69 70 72 73 73 73 74 73 73 74 75 74 71 69 68 66 64 62 59 57 56 56 59
91 90 89 88 87 87 87 88 89 90 90 88 86 82 80 78 79 82 84 85 86 85 85 84 82 81 81 81 83 85 84 83 80 79 78 76 74 74 75 75 73 71 71 71 71 69 67 65 65 65 66 67 68 68 69 70 70 71 71 70 70 69 70 71 73 74 75 75 76 75 75 75 75 72 70 69 68 66 64 61 58 57 56 58 61
93 92 91 90 89 88 89 89 89 89 89 89 88 86 83 80 80 81 83 85 87 88 88 88 87 87 86 85 85 86 86 84 82 81 81 80 79 78 78 76 73 72 73 73 72 70 67 66 67 67 68 69 70 70 71 72 73 73 73 72 72 72 72 72 72 73 74 75 76 76 75 75 74 72 71 71 69 65 62 59 58 58 59 60 62
94 94 95 95 94 93 92 91 89 88 87 87 88 88 88 87 85 84 85 86 87 88 88 89 88 88 88 87 87 87 88 86 85 84 85 85 82 79 77 73 71 72 73 73 73 71 69 68 68 68 68 70 72 72 72 73 73 73 73 73 73 73 73 72 71 70 70 71 72 73 74 74 74 75 74 72 68 63 59 59 59 60 61 63 64
98 98 98 99 100 99 97 93 89 87 85 84 84 86 88 89 89 88 87 87 88 89 89 90 90 90 90 89 89 88 88 87 86 86 87 86 82 79 77 76 75 73 73 73 73 72 70 69 69 69 70 73 73 73 72 72 72 72 72 72 73 73 73 72 69 66 67 68 70 72 74 75 76 77 75 70 65 61 59 60 61 62 63 65 66
101 102 102 103 103 103 102 98 94 90 86 84 83 84 86 89 91 91 90 89 89 90 91 91 90 90 90 90 90 89 89 89 89 88 89 87 83 80 79 77 75 73 71 71 72 71 71 71 71 72 74 75 74 72 72 71 71 71 71 70 70 70 69 68 66 65 67 69 70 71 73 76 77 76 71 66 62 60 60 61 63 64 65 66 68
98 98 98 98 99 99 100 101 99 95 91 86 83 84 87 89 91 92 91 91 92 91 91 90 89 89 89 90 90 89 89 89 89 88 86 85 83 82 79 76 73 70 69 70 70 71 72 72 72 73 75 77 74 72 73 73 71 70 68 66 66 66 65 65 66 67 68 69 70 70 72 75 75 72 68 65 63 61 62 64 65 65 66 68 70
92 91 89 89 89 89 90 93 96 97 95 91 87 85 86 89 89 90 89 90 90 91 90 90 89 88 87 87 87 86 85 85 83 83 82 81 81 80 78 76 73 71 69 70 72 73 72 72 73 74 76 77 76 75 75 74 71 68 66 65 65 65 65 65 67 68 69 69 69 69 71 73 73 70 68 67 64 62 63 65 66 66 68 70 72
88 87 86 85 84 85 86 87 89 92 94 95 92 90 89 89 89 88 88 87 87 87 88 89 89 86 84 82 81 80 79 78 78 78 79 78 77 77 76 76 75 73 72 71 71 73 72 71 71 73 74 75 76 76 76 74 71 68 67 66 66 65 64 65 67 69 69 70 69 69 71 73 72 71 70 67 64 63 64 65 66 67 69 71 73
92 92 91 91 91 91 90 90 90 90 92 94 94 93 92 92 91 91 90 88 87 87 87 88 89 88 85 82 81 80 79 78 76 76 76 76 75 76 77 77 76 76 75 73 72 71 71 71 72 75 76 76 76 76 76 73 70 67 66 66 66 65 65 67 69 70 70 71 69 69 71 73 73 73 71 68 65 64 64 66 67 68 70 72 74
99 100 100 100 100 98 94 91 90 91 92 93 93 92 91 91 92 93 92 92 90 90 91 92 92 92 90 88 86 84 83 82 79 77 77 76 76 77 79 78 76 75 75 75 74 73 73 74 75 77 77 76 74 74 73 69 66 66 67 68 68 68 69 71 73 72 72 72 70 70 72 73 73 73 72 69 67 66 66 67 67 68 70 72 74
100 102 102 102 102 100 96 93 91 91 92 93 92 90 87 84 85 87 89 89 86 85 88 93 95 96 96 95 93 91 89 87 84 81 79 78 77 78 79 78 76 75 74 74 73 71 70 71 71 71 72 71 71 71 69 66 66 67 68 69 70 71 72 73 74 73 73 72 72 73 73 72 72 73 73 70 69 69 68 68 68 68 69 71 73
97 98 99 100 100 99 99 98 95 94 93 94 94 92 87 82 79 78 80 80 77 74 77 82 86 88 90 91 91 91 92 91 88 84 82 81 80 80 80 79 78 78 76 75 72 70 69 69 70 70 71 71 71 71 69 67 67 68 69 70 70 71 72 72 72 73 74 74 74 73 71 70 71 73 72 70 70 70 70 69 69 69 70 71 73
95 95 95 96 97 97 98 99 100 99 98 98 98 96 92 87 82 79 77 76 75 73 73 73 74 75 76 77 79 81 83 85 85 84 83 82 82 81 81 81 82 81 80 78 75 73 72 71 69 69 70 71 71 71 70 69 68 69 70 70 70 70 70 70 71 74 75 75 73 70 68 69 71 71 70 70 70 70 69 68 67 67 69 70 73
94 94 94 94 95 96 97 98 100 101 102 103 102 101 98 95 91 87 84 82 81 78 76 75 74 70 66 66 68 70 72 76 79 81 82 81 81 82 82 82 82 82 81 78 75 72 69 67 66 68 70 70 69 69 69 68 67 68 70 70 69 69 69 70 72 75 75 72 69 68 68 70 69 68 68 69 69 67 65 64 65 67 69 71 74
94 94 94 94 94 95 96 97 98 99 102 104 105 105 104 103 100 97 94 92 90 86 82 81 79 74 68 64 65 66 68 70 73 76 79 79 79 80 81 81 79 78 77 75 72 70 67 66 66 67 68 67 67 67 68 66 64 65 67 67 67 67 68 70 72 73 71 69 69 69 69 68 66 66 67 66 65 63 63 65 67 70 71 73 75
93 94 94 94 95 95 96 96 97 97 99 101 103 105 106 106 106 105 103 100 97 94 90 87 85 82 78 72 68 68 69 68 67 68 71 74 76 78 78 76 74 73 73 72 70 68 67 67 66 65 64 64 65 66 66 65 63 63 64 65 66 66 67 70 71 71 70 69 69 68 67 65 65 66 66 64 63 63 65 67 70 72 74 74 75
92 92 93 93 94 94 95 96 96 97 97 98 99 101 102 104 106 107 107 106 103 101 99 96 91 89 86 81 75 74 73 69 66 65 67 70 74 77 76 74 72 70 70 69 68 68 68 68 67 65 63 63 64 65 65 66 65 65 65 66 66 65 66 69 70 69 68 68 68 67 66 65 67 67 65 64 64 65 67 70 72 74 74 74 74
91 91 91 91 91 92 93 94 95 95 96 97 97 97 98 100 102 103 105 106 107 106 105 103 99 95 92 88 83 80 78 75 71 69 69 69 71 73 74 72 70 68 66 67 68 69 69 70 70 69 68 66 65 66 66 66 66 66 65 65 64 63 64 65 65 64 64 65 66 67 67 67 67 67 67 67 68 69 70 72 73 73 73 73 74
87 87 87 88 88 88 89 90 91 92 93 94 95 95 95 96 98 99 100 101 105 107 107 107 104 101 98 94 89 85 82 80 78 77 75 72 70 70 72 70 67 64 64 66 68 70 71 71 72 72 71 69 67 66 66 67 66 66 65 64 62 61 60 59 60 61 64 65 66 67 69 69 69 69 70 70 71 72 71 71 72 72 72 73 73
83 82 82 83 83 84 85 86 86 88 89 90 91 92 93 93 94 96 96 96 98 102 104 105 104 103 102 98 94 89 86 84 82 81 79 76 73 73 73 71 66 63 63 65 67 69 70 70 71 73 73 72 69 68 68 68 65 64 63 62 60 60 59 60 61 63 65 67 69 71 72 72 71 71 72 72 73 72 71 71 71 72 72 73 74
78 77 76 77 78 79 80 80 81 82 83 84 86 87 88 89 90 91 92 93 94 95 98 99 100 101 101 100 96 92 89 87 85 82 79 78 77 76 76 74 70 66 65 65 66 68 68 69 71 74 76 75 73 72 73 73 69 64 62 62 62 62 63 64 66 67 68 70 72 73 73 72 72 72 73 73 72 71 71 71 72 73 73 74 74
70 69 69 69 70 72 73 74 75 76 77 78 80 81 82 83 84 84 85 88 90 91 91 93 93 94 96 97 97 94 91 89 86 83 79 78 78 78 77 77 74 71 68 67 67 68 69 69 71 74 75 74 73 72 74 76 75 71 67 65 64 64 65 67 70 71 71 71 71 71 71 72 73 74 73 72 71 71 72 73 73 73 74 74 74
63 62 62 62 63 64 65 66 67 69 70 72 73 75 76 78 78 78 79 81 84 86 87 87 87 88 89 91 93 93 92 90 87 85 82 80 81 81 79 78 77 74 72 70 68 68 70 72 73 74 75 74 74 74 73 74 75 75 72 70 68 67 67 68 69 69 69 69 69 70 71 72 72 72 71 71 71 72 72 73 73 73 73 73 74
60 60 59 59 59 59 60 60 60 61 63 65 67 69 70 71 73 74 75 75 76 79 80 81 81 82 84 85 86 88 90 89 87 86 84 83 83 84 83 82 80 77 73 72 70 70 71 74 75 74 73 72 72 73 72 71 70 70 70 69 68 67 67 67 66 66 66 67 68 69 70 70 70 70 70 71 71 72 72 72 72 72 73 73 74
59 58 58 58 57 56 56 56 56 56 57 58 60 62 63 65 67 69 70 70 71 72 72 73 74 76 78 80 81 82 85 86 85 85 85 85 85 85 86 85 83 77 73 71 71 71 72 74 74 72 69 68 67 67 67 66 65 63 62 62 61 62 63 63 64 65 66 66 67 68 68 68 69 69 70 70 71 71 71 72 72 73 73 74 74
54 54 54 54 54 53 53 52 52 52 52 52 53 55 56 57 59 62 63 65 66 66 66 66 67 69 72 75 77 78 80 83 83 83 85 87 88 88 87 85 83 78 73 71 72 73 72 71 70 69 67 66 65 64 63 62 61 60 59 58 58 59 60 61 63 64 65 66 67 67 68 68 69 70 70 71 71 71 71 72 72 73 73 73 73
49 49 49 49 50 50 49 49 48 47 47 47 47 48 49 50 52 54 56 58 59 60 60 61 62 64 66 68 71 73 75 79 81 82 84 87 91 92 89 86 83 81 78 74 74 75 74 71 69 68 67 67 66 65 64 63 62 61 61 60 60 60 61 62 63 65 66 67 68 69 69 70 70 70 70 70 70 70 70 71 71 72 72 73 72
44 44 45 46 46 46 45 45 44 42 42 42 42 42 43 44 46 48 49 51 52 54 55 57 58 59 60 62 64 67 70 74 77 79 81 86 91 93 92 88 85 83 81 78 76 78 78 75 72 71 71 71 70 70 69 68 66 65 65 65 65 65 65 65 66 67 68 69 69 70 71 71 70 70 70 70 69 69 69 69 70 70 70 71 70
39 40 42 42 42 41 40 39 39 38 37 37 38 38 38 39 41 43 44 46 47 48 50 51 53 54 55 56 58 60 63 67 70 73 77 82 87 91 93 91 87 85 83 80 80 82 83 81 77 76 75 75 74 73 73 72 71 70 70 69 69 69 68 68 68 68 68 68 68 69 69 69 69 68 68 67 67 67 67 67 68 68 68 68 68
35 36 36 36 34 32 31 30 31 31 32 32 33 34 34 35 36 38 39 41 42 42 43 45 46 47 49 50 52 53 55 58 61 65 69 74 80 86 90 92 90 88 84 82 82 84 84 82 79 78 77 76 75 75 74 74 74 73 73 72 71 70 69 69 68 67 67 67 66 66 66 66 65 65 65 65 64 64 65 65 65 65 66 66 66
32 31 29 27 25 24 23 23 23 23 24 25 27 28 29 30 31 32 33 34 36 36 37 38 40 41 43 45 46 48 49 50 53 57 61 65 71 77 83 87 89 88 87 85 83 82 81 80 78 77 76 76 75 75 74 74 74 73 73 72 71 70 69 67 66 65 65 64 64 63 63 62 62 62 62 62 62 63 63 63 63 64 64 65 65
28 27 24 22 21 19 18 17 16 16 16 17 18 19 20 22 23 23 24 26 28 29 30 31 33 34 36 38 40 41 42 44 46 48 52 56 61 66 71 76 79 82 83 82 78 75 75 76 76 76 74 73 72 72 71 72 72 72 71 71 69 68 66 64 62 61 61 60 60 60 59 59 59 59 60 60 60 61 61 61 62 63 63 63 63
26 24 22 21 20 18 14 11 10 9 8 8 8 9 10 11 12 13 15 17 19 21 22 24 26 28 30 32 33 35 35 37 38 40 43 46 51 55 60 63 66 69 70 70 68 69 71 72 72 71 70 69 68 68 69 69 70 69 69 67 66 64 61 60 59 58 57 57 57 56 56 56 57 57 58 58 58 58 59 60 61 61 61 61 61
26 23 21 20 20 19 15 10 9 9 8 8 8 8 7 6 6 6 7 9 11 13 15 17 19 21 23 24 26 27 28 29 32 34 36 39 42 45 49 51 53 55 57 59 61 63 65 66 66 65 65 65 65 65 64 64 63 63 62 62 61 60 59 58 57 55 55 54 54 54 54 55 55 55 55 55 56 57 58 59 59 59 59 60 61
27 25 22 20 19 19 15 11 9 8 8 8 9 9 8 8 7 7 6 6 7 8 10 12 14 16 18 19 21 22 24 26 29 31 32 34 36 39 41 43 44 46 48 51 53 55 57 58 58 58 58 58 58 57 57 57 57 57 57 58 57 56 55 54 53 53 52 52 52 52 52 52 52 52 53 54 55 56 56 56 57 57 58 60 61
24 25 24 22 20 18 15 12 9 7 7 7 8 8 8 8 7 6 6 5 4 5 6 8 10 11 13 15 17 19 22 25 28 29 30 31 32 34 36 38 40 41 42 43 44 46 47 48 48 48 48 49 49 49 50 50 51 51 52 52 51 51 51 51 51 50 50 50 50 50 50 50 51 52 53 54 54 53 53 54 55 57 58 59 60
22 22 22 22 21 19 18 15 11 8 7 8 8 8 8 8 8 7 6 5 4 4 4 5 7 8 10 11 13 17 20 21 21 21 22 23 24 25 27 30 32 35 36 38 39 39 39 39 39 40 40 41 42 43 44 44 45 46 46 46 47 47 47 48 48 48 48 49 49 49 49 50 50 51 51 51 51 51 52 53 55 56 57 58 59
22 21 21 21 20 19 18 17 15 13 10 9 8 8 9 10 10 10 10 9 8 8 8 8 8 9 10 10 12 15 16 16 15 14 15 17 18 20 22 24 26 29 31 33 35 35 35 36 36 37 37 38 39 40 41 42 42 43 43 43 44 44 45 46 46 47 48 48 48 48 48 48 48 48 48 48 49 50 51 53 54 55 56 58 59
24 22 20 19 18 18 17 16 15 14 13 11 9 8 9 10 12 13 13 13 12 12 12 12 12 12 12 11 11 11 11 13 13 13 15 17 18 20 22 22 24 26 28 31 33 35 35 35 35 35 35 36 36 37 38 39 40 41 41 42 42 43 44 45 46 46 47 47 46 46 45 45 44 45 46 47 48 49 51 52 53 55 57 59 61
37 32 27 23 20 18 16 15 14 14 13 13 12 12 12 12 13 15 16 16 15 14 13 13 13 13 12 11 10 10 11 12 12 13 13 14 15 18 21 22 23 23 24 26 29 31 33 33 33 33 33 33 34 35 36 37 38 39 40 41 42 43 44 45 46 46 46 46 44 43 42 42 43 44 45 46 48 49 50 52 54 56 58 60 62
42 42 39 36 31 26 21 17 14 12 12 12 12 12 12 12 12 12 13 12 11 10 8 8 9 9 9 9 9 10 12 13 14 15 14 13 13 14 16 19 21 23 24 24 24 26 28 29 30 30 31 32 33 34 35 37 38 40 41 42 43 44 45 45 46 45 44 43 41 41 41 41 43 44 45 47 48 50 51 53 55 58 60 62 64
Wind_Direction
258 255 252 251 251 252 253 252 251 253 256 258 261 263 264 266 266 266 266 265 264 263 262 261 260 258 257 257 256 257 258 259 260 260 261 261 262 262 263 265 266 267 268 269 270 271 272 272 273 273 272 272 273 275 276 275 273 271 270 270 270 271 272 273 273 273 273 273 272 271 271 271 272 274 276 277 278 280 281 283 284 286 287 288 288
259 255 251 249 250 250 251 251 250 251 254 258 261 263 264 265 267 268 268 269 269 269 268 267 266 265 264 262 262 262 262 262 262 262 262 262 263 263 264 265 265 266 268 269 271 271 271 271 271 271 271 271 272 273 274 273 272 270 270 270 271 272 273 274 275 275 274 274 273 272 273 274 275 277 278 280 281 282 283 284 286 287 288 288 288
260 258 254 251 250 250 251 251 250 251 255 259 261 262 262 264 266 267 268 269 269 269 269 269 268 268 267 267 266 266 266 266 265 265 265 265 265 265 265 266 266 267 268 270 270 270 270 270 270 270 270 271 272 272 271 271 271 270 269 270 270 271 273 274 275 275 275 275 274 274 275 276 278 279 280 281 282 283 285 285 286 287 287 287 287
260 258 256 254 252 250 249 248 248 250 253 256 259 259 260 262 264 266 267 268 268 269 269 269 269 269 268 267 267 266 265 265 265 265 265 265 265 265 266 266 268 269 269 269 269 269 269 269 269 269 270 271 272 272 271 269 269 270 270 270 271 271 272 273 274 275 275 276 275 275 276 278 279 281 282 282 283 284 285 285 286 286 285 285 284
256 256 255 254 254 252 249 247 247 249 251 254 256 257 257 259 261 263 264 265 266 267 268 269 269 269 269 268 267 266 266 265 264 264 264 264 265 266 266 267 268 269 269 269 268 268 268 267 268 269 271 272 273 273 272 270 269 270 271 272 272 272 272 273 273 274 275 275 276 276 277 278 280 281 282 282 283 284 284 284 284 283 283 282 282
251 250 250 249 250 251 251 250 249 250 252 253 255 256 255 255 256 259 261 262 263 265 266 267 268 269 269 269 268 268 267 267 266 266 266 266 267 268 269 270 271 271 270 270 269 269 268 268 268 270 272 273 273 272 271 271 270 270 271 272 273 273 273 273 273 274 274 275 276 277 278 279 280 280 281 282 282 282 282 282 282 282 281 281 281
253 251 249 248 247 246 247 249 250 252 253 254 254 255 256 256 255 255 257 258 259 260 262 263 265 266 267 267 268 268 267 267 267 267 268 268 269 270 270 270 270 270 270 270 271 271 271 271 271 271 272 273 273 272 272 271 271 271 271 272 273 274 274 274 274 274 275 275 276 277 278 278 279 279 280 281 281 280 280 280 280 280 280 279 279
259 258 257 256 254 251 249 250 251 254 256 258 257 256 257 258 257 256 255 256 256 257 258 259 260 262 263 264 266 267 267 267 267 267 268 269 269 268 268 268 267 267 268 269 270 271 272 272 272 272 273 273 273 273 273 273 273 273 273 273 274 274 275 275 275 275 275 276 276 277 277 277 277 278 279 279 279 278 278 278 278 278 278 277 276
263 263 262 262 262 260 259 257 257 258 259 261 261 260 259 259 258 257 257 256 256 256 256 257 258 260 261 262 263 264 265 266 266 266 266 266 265 265 266 266 266 266 266 266 268 269 270 271 272 273 273 273 273 274 274 274 274 275 274 274 273 274 274 275 275 275 275 275 276 276 276 276 276 277 277 277 276 276 276 276 276 276 275 274 273
264 264 264 264 264 264 264 264 264 264 264 264 264 263 262 260 259 258 258 258 257 257 257 257 258 259 260 261 262 262 263 264 265 266 265 263 262 262 263 266 267 266 265 265 267 268 269 270 271 272 273 273 273 274 274 275 275 275 275 274 274 273 274 274 275 275 275 274 274 274 275 275 275 275 275 275 274 274 275 275 274 272 271 271 271
265 265 265 265 266 266 265 265 265 266 266 266 266 264 262 260 259 258 258 258 258 258 259 259 259 259 259 260 261 262 262 262 262 263 262 262 261 261 262 264 266 265 264 265 267 268 269 270 270 272 273 273 273 273 273 274 275 275 276 276 275 275 274 274 274 274 274 274 273 273 273 273 273 273 273 272 272 273 273 273 270 269 268 268 269
267 266 266 265 266 268 270 269 267 266 266 266 266 264 262 259 257 257 258 259 259 259 259 260 259 259 259 260 261 263 262 262 261 261 260 261 262 263 263 263 263 263 264 266 267 268 269 270 270 272 273 273 272 272 273 273 274 275 276 276 276 276 275 274 273 273 273 273 272 272 271 271 271 271 271 271 272 272 270 268 267 266 266 266 267
268 268 268 267 267 268 271 271 269 268 267 267 266 265 263 261 258 257 256 256 257 258 259 259 259 260 260 260 261 262 263 263 262 262 262 263 264 265 264 263 261 262 264 266 267 268 269 270 270 271 272 272 272 272 272 272 273 274 275 276 276 276 275 273 272 271 270 270 271 271 270 269 269 269 269 270 270 269 267 265 264 264 265 265 265
267 267 268 268 269 269 270 269 268 267 267 266 265 264 262 260 259 257 255 255 255 255 256 257 258 259 259 260 260 261 262 262 262 263 263 263 264 264 263 263 262 262 262 264 265 267 268 269 270 270 271 272 271 271 271 272 273 274 275 276 276 275 274 273 271 268 267 268 270 270 269 269 268 268 268 268 267 265 264 263 263 263 264 264 263
267 267 267 268 268 269 269 268 266 265 265 264 262 261 259 258 257 256 254 254 253 253 253 254 256 257 258 259 259 259 260 260 261 262 262 262 264 265 264 264 263 261 260 261 263 265 267 268 269 269 270 270 269 268 269 271 273 274 274 275 275 274 273 271 269 267 268 271 272 269 268 267 267 267 266 265 264 264 263 263 263 263 263 262 262
267 266 266 266 267 267 268 268 267 265 263 262 260 257 255 255 255 254 253 252 253 253 254 254 254 255 257 258 258 258 259 259 259 259 260 262 264 265 265 263 261 259 260 261 263 265 265 266 267 267 268 269 267 267 268 270 272 272 272 273 273 272 271 269 269 270 271 274 273 268 264 264 264 264 264 263 262 262 262 262 263 263 262 262 262
266 265 265 265 265 266 267 268 268 267 265 262 259 256 254 253 253 253 253 252 252 253 254 255 255 255 255 255 256 257 257 258 259 259 261 262 263 263 263 262 260 260 261 263 264 266 267 267 267 267 267 268 267 266 267 269 269 269 270 271 270 269 268 268 269 270 271 274 273 266 261 261 262 262 262 261 261 261 262 264 264 264 264 263 263
264 264 263 264 265 267 268 268 269 269 268 265 262 258 255 254 253 254 253 253 252 252 253 254 255 256 256 255 256 256 257 258 259 260 260 260 261 262 262 262 261 261 262 263 264 266 267 269 269 269 269 269 267 266 266 267 267 268 269 270 269 267 266 266 268 269 271 273 271 263 259 259 261 261 262 262 262 262 264 266 267 267 266 266 265
265 264 264 265 267 269 270 269 268 269 269 268 266 262 258 256 255 255 255 255 254 255 255 254 254 254 256 256 257 257 258 258 259 259 258 259 261 263 264 264 263 263 263 264 264 265 266 267 268 269 269 268 267 266 265 265 266 267 268 267 266 265 264 265 267 268 270 272 267 259 256 258 260 262 263 263 263 263 265 268 269 269 269 268 267
268 268 268 268 269 270 270 268 267 267 267 267 266 265 262 259 258 257 257 256 257 258 259 259 258 256 256 256 257 258 259 260 260 260 259 260 261 262 263 265 265 266 265 265 265 265 266 266 267 267 267 266 265 264 264 265 266 266 266 265 264 263 263 265 266 267 269 268 262 255 254 256 258 262 264 264 262 263 267 270 271 271 271 270 269
270 270 270 270 270 270 269 268 266 265 264 264 264 263 262 261 260 258 257 257 257 258 259 259 259 258 257 257 257 257 259 260 261 260 260 261 261 261 262 263 264 265 265 266 265 264 264 264 265 265 266 265 264 264 266 266 266 265 264 264 264 263 263 264 265 266 267 265 258 254 253 254 257 262 265 264 263 264 267 271 273 273 273 272 271
270 269 270 270 269 269 268 266 265 264 262 262 263 262 261 259 258 257 255 254 254 255 256 257 257 256 256 256 257 257 257 259 260 260 260 260 261 261 261 261 261 261 262 262 262 261 261 263 264 265 266 266 265 266 266 265 264 264 263 263 263 263 263 263 264 266 267 264 259 255 253 253 257 263 266 266 265 267 270 273 274 275 274 274 273
270 269 269 268 268 268 267 265 264 263 261 261 261 260 259 258 257 256 254 252 251 252 254 256 256 255 254 254 255 255 256 256 256 256 256 257 259 260 260 260 260 259 259 259 258 258 259 262 263 265 265 265 265 264 264 263 263 263 263 262 262 262 262 263 265 267 266 263 258 253 251 254 260 265 266 267 268 270 273 275 275 276 275 275 275
271 269 268 268 267 266 266 265 264 263 261 260 259 259 258 257 257 257 256 254 253 253 254 256 256 253 252 252 252 252 252 251 250 251 252 254 256 257 258 258 258 258 258 258 258 259 261 263 264 265 265 264 262 262 262 263 262 261 261 261 261 261 263 265 267 266 262 257 253 251 253 258 262 264 266 267 270 273 274 275 276 276 276 277 276
272 271 270 268 267 266 265 264 264 263 262 261 260 259 258 257 256 257 257 257 256 254 255 256 255 253 253 254 252 250 249 247 247 248 250 252 254 256 256 256 256 256 257 257 258 260 262 263 264 264 264 262 261 261 261 261 260 260 260 261 261 263 265 267 267 262 257 252 250 252 256 259 262 265 267 269 270 272 273 275 276 277 277 277 277
274 272 271 270 268 267 265 264 263 262 262 262 261 261 260 259 257 256 257 257 257 255 255 256 256 256 257 258 255 252 250 248 245 246 248 250 251 252 253 253 252 253 254 256 257 259 260 261 261 261 261 261 261 260 260 260 260 260 260 261 263 263 266 269 265 257 252 250 250 253 258 262 265 267 267 267 269 272 275 276 276 276 277 277 278
274 273 272 271 270 268 267 265 264 263 262 261 261 261 261 261 259 257 256 256 256 256 255 255 255 256 257 258 256 254 252 251 249 248 249 250 250 251 251 250 249 250 253 255 256 257 258 259 259 258 259 260 261 260 259 259 260 259 260 261 262 264 268 269 262 253 250 250 252 256 260 264 266 266 265 266 269 272 274 275 275 276 277 277 278
275 274 273 272 271 270 269 267 265 264 262 261 261 260 260 260 260 259 257 256 256 255 255 255 255 255 256 257 257 255 254 254 255 254 253 253 254 255 254 252 251 251 253 255 256 256 257 258 258 258 259 260 260 260 259 260 261 262 261 260 262 266 268 264 256 252 252 255 257 260 263 265 264 264 263 264 267 270 272 274 274 275 276 277 279
277 276 275 274 272 271 270 268 267 265 263 262 261 260 259 259 259 258 258 257 257 256 255 255 255 255 256 257 258 257 256 256 256 256 256 256 258 258 258 256 253 251 252 254 255 256 257 257 258 259 260 260 259 258 259 260 262 262 260 258 261 265 263 257 254 256 258 260 261 261 262 262 261 261 261 264 267 270 271 272 273 274 276 279 282
278 277 276 275 274 272 271 269 268 267 265 263 262 260 259 258 258 257 257 257 257 257 256 256 256 256 256 257 258 258 257 256 256 256 257 257 257 258 259 260 257 252 252 254 256 257 258 259 259 260 261 261 260 259 259 260 260 260 258 257 260 262 258 253 253 256 257 258 259 259 260 260 260 260 262 265 268 269 270 271 274 277 280 283 286
281 279 278 277 276 274 273 271 270 268 267 265 263 261 259 258 258 257 257 256 255 256 256 256 256 256 256 256 257 257 256 256 256 256 256 256 255 255 257 259 259 256 254 255 257 259 260 261 260 260 259 260 260 260 260 259 257 257 256 256 258 260 259 255 253 253 253 254 255 256 258 260 260 262 264 266 267 269 271 274 278 280 283 285 286
283 282 281 279 278 276 275 273 271 270 268 267 265 263 261 258 257 257 257 256 255 254 254 255 255 255 256 255 255 255 255 255 254 254 253 253 253 253 254 256 258 257 256 257 259 260 260 261 261 259 257 257 258 259 259 257 255 254 255 255 257 259 260 259 256 254 253 252 252 254 256 258 259 262 263 266 269 272 275 277 280 282 284 285 286
286 285 284 282 280 279 277 275 273 271 269 268 266 264 262 260 257 255 255 256 256 254 253 253 253 253 254 254 253 253 253 253 252 250 249 249 250 250 251 252 253 255 256 257 258 259 260 261 261 260 258 257 258 259 258 257 256 255 255 255 256 257 258 258 256 254 252 251 251 252 255 257 259 262 265 268 272 275 277 280 281 283 284 285 285
288 288 287 285 283 282 280 278 276 274 271 269 267 265 263 261 259 256 254 254 254 254 253 253 252 252 252 252 251 251 251 251 250 248 247 247 246 246 247 248 249 250 252 255 257 258 259 260 260 259 258 257 256 256 256 255 255 255 254 253 253 253 253 253 252 251 251 251 252 254 257 259 262 265 268 272 275 277 280 282 283 283 284 284 285
290 289 288 286 284 282 280 278 277 276 274 272 270 268 265 263 261 259 256 254 253 253 253 252 252 251 250 250 249 249 249 249 248 246 245 244 243 243 243 244 246 248 250 252 253 255 256 257 256 255 254 253 253 252 252 251 251 251 251 250 248 247 247 247 248 249 250 253 255 258 261 264 267 270 273 276 278 280 282 283 283 283 283 284 284
292 291 289 286 283 281 278 276 275 275 275 274 272 270 267 264 262 260 258 255 253 252 251 251 251 250 249 248 248 247 247 246 245 244 242 240 239 240 241 241 243 246 248 248 248 249 250 250 249 249 248 249 249 248 248 248 249 249 250 250 249 249 248 249 250 252 255 257 261 264 267 270 272 275 277 278 280 280 281 282 282 282 283 283 284
294 293 291 289 286 283 279 275 273 272 273 273 273 270 268 265 263 260 258 257 255 252 251 250 249 249 248 248 247 246 245 244 243 241 240 238 237 238 240 240 241 244 245 245 245 245 246 245 244 245 246 247 247 247 247 247 249 250 252 254 255 256 257 259 261 262 264 267 269 271 273 275 276 277 278 278 279 280 280 281 281 281 282 282 283
297 296 294 293 291 287 282 277 273 270 270 271 272 271 268 265 263 261 259 257 255 253 251 250 250 249 249 248 247 246 244 244 243 241 239 238 238 238 239 240 240 241 242 243 243 244 244 244 243 245 247 249 250 249 249 249 250 252 254 256 259 261 264 266 268 270 272 273 275 275 276 277 277 277 278 278 278 279 279 279 279 280 280 281 282
301 300 299 297 294 290 285 279 274 271 270 270 270 270 269 266 264 262 259 257 255 254 252 251 251 250 250 250 249 248 246 244 243 241 239 238 238 239 239 241 241 240 240 240 241 242 243 245 246 247 249 250 251 252 252 252 253 254 257 259 261 264 266 269 271 273 274 275 276 276 276 276 276 276 277 277 277 277 278 278 278 279 279 280 280
306 303 302 300 298 294 289 283 278 275 273 273 273 272 271 269 266 263 261 259 257 255 253 252 251 251 250 250 250 249 248 245 244 242 240 239 239 239 240 241 242 241 241 241 241 241 243 246 248 249 250 251 252 253 254 255 256 258 260 262 264 266 268 270 272 273 274 274 275 275 275 275 275 275 276 276 276 276 277 277 277 277 278 279 280
311 307 307 307 306 303 297 291 286 282 279 278 276 274 272 269 267 265 262 259 257 254 252 251 250 250 250 250 250 250 249 247 245 243 240 239 239 239 240 240 242 242 243 243 244 244 245 247 249 250 251 252 254 255 257 258 260 261 263 265 266 268 269 270 271 271 272 272 272 273 273 274 274 274 275 275 275 276 276 275 275 276 277 279 280
319 315 317 321 323 321 314 306 300 296 290 285 282 278 274 271 269 266 262 258 255 253 251 249 249 248 248 249 250 250 250 249 247 245 242 240 239 239 239 240 241 242 243 244 245 245 245 247 248 250 252 253 255 256 258 259 261 262 264 265 267 267 268 268 269 269 269 270 270 271 271 271 272 272 273 274 274 274 274 274 275 276 278 280 281
333 327 328 334 339 342 340 336 334 335 330 322 311 300 289 282 275 267 259 254 250 248 246 245 244 244 245 246 248 248 249 249 248 246 243 240 239 238 238 239 239 240 240 241 242 243 245 247 249 251 253 254 255 256 257 259 261 262 264 265 266 266 267 267 267 267 267 267 267 268 268 269 269 270 271 272 273 273 273 274 276 278 279 280 281
347 342 340 342 348 352 355 360 4 8 10 8 2 354 343 326 309 291 271 257 250 246 244 243 243 244 245 247 248 249 248 247 246 243 241 239 237 236 236 236 236 236 236 237 239 242 245 247 249 251 253 254 255 256 258 259 260 261 262 263 264 265 265 265 264 264 263 264 264 265 265 266 267 269 269 270 271 272 273 275 277 278 279 281 282
358 359 356 353 352 352 354 356 356 356 359 358 354 352 352 347 338 329 314 295 278 266 259 255 253 252 252 252 252 251 248 246 243 240 238 237 234 232 231 230 229 230 231 234 237 241 244 246 248 249 251 252 253 255 256 256 257 258 259 260 261 261 261 260 259 259 260 260 261 262 263 264 266 267 269 270 272 273 274 276 277 278 280 282 284
1 4 6 8 6 2 359 354 343 334 337 340 338 339 342 342 341 338 331 321 304 279 263 254 249 249 251 252 251 249 247 244 241 238 235 233 231 229 227 225 224 225 227 230 233 237 241 244 245 246 247 248 249 250 251 252 254 255 256 256 256 256 256 256 257 257 258 259 260 261 262 263 265 267 269 271 272 273 275 276 278 280 282 283 285
5 6 7 9 10 10 8 5 356 342 328 320 318 321 324 325 323 319 315 308 299 285 271 258 252 253 255 256 257 256 251 243 237 234 230 227 226 225 224 223 223 224 225 227 231 235 238 239 238 238 240 241 243 245 247 248 249 250 251 252 253 253 254 254 255 256 257 258 259 260 262 263 266 268 270 271 273 274 275 277 279 281 283 285 286
6 7 8 9 9 7 6 3 1 357 351 339 325 314 310 308 308 307 304 298 289 280 273 267 264 263 260 259 265 264 249 229 219 224 231 231 228 227 226 226 227 228 228 229 232 234 234 233 232 234 235 237 240 242 244 245 246 247 248 250 252 253 254 254 255 256 257 258 259 261 262 265 267 269 271 272 274 275 277 279 281 283 285 286 288
11 8 6 5 5 4 2 358 354 351 348 343 336 325 311 303 300 300 299 296 290 283 277 270 268 267 263 259 261 259 240 220 217 229 238 238 236 233 232 231 233 234 234 234 234 233 232 230 231 233 236 238 240 242 243 244 245 246 248 251 253 254 255 256 257 257 258 259 260 262 264 267 269 270 272 273 275 277 279 281 283 285 286 288 289
27 24 19 13 6 1 357 354 351 347 342 336 330 324 316 308 301 299 297 295 289 284 279 274 269 265 262 256 250 247 244 245 250 251 247 241 236 233 232 232 234 236 237 238 236 234 232 232 234 236 239 241 242 243 244 246 247 250 253 255 256 257 257 257 257 257 258 259 261 263 266 268 269 271 273 276 278 280 282 283 285 286 288 289 290
30 30 28 26 23 18 11 4 357 351 347 342 337 331 325 318 311 306 302 297 287 278 274 273 269 263 259 254 249 246 246 249 253 254 253 253 251 244 239 238 238 238 238 238 237 236 235 237 239 241 243 245 246 247 249 251 253 255 256 257 257 256 256 255 255 256 258 260 262 265 267 269 271 273 276 278 281 282 284 285 287 288 289 290 291
Height
5644 5644 5645 5645 5646 5646 5645 5645 5645 5645 5645 5645 5645 5645 5644 5645 5645 5645 5645 5646 5645 5645 5645 5645 5644 5644 5644 5644 5645 5646 5646 5647 5647 5647 5647 5648 5649 5649 5650 5650 5651 5652 5652 5652 5652 5652 5651 5651 5651 5651 5651 5652 5652 5651 5651 5651 5651 5651 5651 5651 5651 5651 5651 5650 5649 5650 5651 5652 5652 5651 5651 5652 5654 5654 5654 5653 5654 5654 5653 5653 5652 5652 5651 5649 5648
5635 5635 5636 5636 5637 5637 5636 5636 5635 5635 5636 5636 5635 5635 5634 5634 5634 5635 5636 5637 5637 5638 5638 5638 5637 5636 5637 5637 5637 5638 5638 5639 5639 5639 5639 5640 5641 5641 5642 5643 5643 5644 5644 5644 5644 5643 5643 5644 5643 5643 5643 5643 5644 5643 5643 5643 5643 5643 5643 5643 5643 5643 5643 5642 5641 5641 5643 5644 5644 5644 5644 5644 5645 5646 5646 5644 5645 5645 5645 5645 5644 5644 5642 5640 5639
5626 5626 5627 5627 5627 5627 5627 5627 5626 5626 5626 5626 5626 5626 5625 5625 5624 5624 5625 5626 5627 5628 5628 5628 5628 5628 5629 5629 5629 5630 5630 5630 5630 5631 5631 5632 5632 5633 5633 5634 5634 5635 5636 5636 5635 5635 5635 5635 5635 5635 5634 5635 5635 5635 5635 5635 5634 5634 5634 5634 5635 5635 5635 5635 5634 5633 5634 5636 5636 5636 5636 5636 5636 5638 5638 5636 5636 5636 5635 5635 5636 5635 5634 5632 5631
5617 5617 5617 5617 5617 5617 5616 5616 5616 5616 5616 5617 5617 5617 5616 5616 5615 5615 5615 5615 5616 5617 5616 5617 5617 5618 5619 5620 5620 5620 5621 5621 5621 5621 5622 5622 5623 5623 5624 5624 5625 5625 5626 5626 5626 5625 5626 5626 5626 5626 5626 5626 5626 5627 5627 5626 5625 5625 5625 5626 5626 5627 5627 5627 5627 5626 5625 5627 5628 5628 5628 5628 5628 5629 5629 5628 5627 5627 5626 5626 5625 5625 5624 5623 5622
5605 5606 5606 5607 5607 5606 5606 5605 5605 5605 5605 5606 5607 5607 5607 5607 5606 5606 5606 5606 5606 5605 5605 5606 5606 5607 5609 5609 5609 5610 5611 5611 5611 5611 5612 5612 5612 5613 5614 5614 5615 5615 5616 5616 5616 5616 5616 5617 5617 5617 5617 5618 5618 5618 5618 5617 5617 5616 5616 5617 5617 5618 5619 5619 5619 5619 5618 5618 5619 5620 5620 5621 5621 5621 5621 5620 5619 5619 5618 5617 5616 5615 5615 5614 5613
5592 5593 5593 5594 5594 5595 5594 5594 5594 5594 5594 5595 5596 5596 5596 5596 5597 5597 5596 5596 5596 5595 5595 5596 5596 5597 5598 5598 5599 5600 5600 5601 5601 5602 5602 5602 5602 5602 5603 5604 5605 5605 5605 5605 5605 5606 5606 5607 5608 5608 5609 5609 5609 5609 5609 5609 5609 5609 5609 5608 5609 5609 5610 5611 5611 5611 5610 5610 5611 5612 5613 5613 5613 5613 5613 5613 5612 5612 5611 5610 5608 5607 5607 5606 5605
5581 5581 5581 5581 5581 5581 5581 5581 5581 5581 5582 5583 5584 5585 5585 5585 5586 5586 5586 5586 5586 5586 5586 5586 5586 5587 5587 5588 5589 5589 5590 5591 5592 5592 5593 5593 5593 5593 5593 5594 5594 5595 5595 5595 5596 5596 5597 5598 5599 5600 5600 5600 5599 5599 5600 5600 5600 5601 5601 5601 5601 5601 5602 5603 5603 5603 5603 5602 5603 5604 5605 5606 5605 5604 5605 5606 5604 5604 5604 5603 5601 5600 5600 5599 5597
5569 5570 5569 5569 5569 5569 5569 5569 5569 5568 5569 5570 5572 5573 5574 5574 5574 5574 5574 5575 5575 5575 5575 5576 5576 5577 5578 5578 5578 5578 5579 5581 5582 5583 5584 5584 5584 5584 5584 5584 5584 5585 5585 5586 5586 5587 5588 5589 5590 5591 5591 5590 5590 5590 5590 5590 5591 5592 5593 5594 5594 5594 5594 5594 5595 5595 5595 5594 5594 5595 5596 5598 5597 5596 5597 5597 5596 5595 5596 5595 5593 5592 5592 5591 5589
5556 5556 5556 5556 5556 5556 5556 5556 5556 5556 5556 5557 5558 5559 5561 5562 5562 5562 5562 5563 5564 5564 5564 5564 5565 5566 5567 5567 5568 5568 5569 5570 5572 5573 5573 5573 5574 5574 5574 5574 5574 5575 5575 5575 5576 5577 5579 5580 5581 5581 5581 5580 5580 5580 5580 5580 5581 5582 5584 5584 5585 5585 5585 5586 5586 5587 5586 5586 5585 5586 5587 5588 5588 5588 5588 5588 5587 5587 5587 5587 5585 5584 5584 5583 5580
5541 5542 5542 5542 5542 5543 5543 5543 5542 5542 5542 5543 5544 5545 5547 5548 5549 5550 5550 5551 5551 5551 5552 5552 5554 5554 5555 5555 5556 5557 5559 5561 5561 5562 5562 5562 5562 5563 5563 5563 5564 5564 5564 5565 5566 5568 5570 5571 5571 5572 5572 5571 5570 5570 5570 5570 5571 5572 5573 5574 5575 5576 5576 5577 5578 5578 5578 5577 5576 5576 5577 5577 5578 5579 5579 5578 5578 5577 5577 5577 5576 5575 5575 5575 5571
5525 5526 5527 5527 5527 5528 5529 5530 5529 5528 5528 5529 5530 5532 5533 5534 5535 5537 5538 5538 5539 5539 5540 5541 5542 5542 5543 5543 5543 5545 5548 5550 5550 5550 5550 5550 5550 5551 5551 5552 5553 5553 5554 5555 5556 5558 5560 5561 5562 5562 5563 5562 5561 5561 5560 5560 5561 5561 5562 5563 5564 5565 5566 5567 5568 5568 5568 5568 5566 5567 5568 5567 5567 5569 5569 5568 5568 5568 5567 5567 5566 5566 5566 5565 5563
5508 5509 5510 5512 5512 5513 5513 5514 5515 5515 5515 5515 5516 5518 5519 5521 5522 5523 5524 5525 5526 5527 5528 5528 5529 5530 5530 5531 5532 5533 5535 5537 5538 5539 5539 5539 5539 5539 5539 5540 5541 5542 5543 5544 5546 5549 5550 5551 5552 5553 5553 5553 5552 5552 5551 5551 5551 5551 5552 5552 5553 5554 5555 5556 5557 5558 5558 5557 5556 5557 5557 5556 5557 5558 5558 5558 5558 5558 5558 5557 5556 5556 5556 5555 5554
5494 5494 5494 5494 5496 5498 5499 5499 5500 5500 5501 5501 5502 5503 5504 5505 5507 5508 5510 5511 5512 5513 5515 5515 5516 5517 5518 5519 5521 5522 5523 5524 5525 5526 5527 5527 5528 5527 5527 5528 5529 5531 5532 5534 5536 5538 5540 5541 5542 5543 5543 5543 5542 5542 5542 5541 5541 5541 5541 5542 5543 5543 5544 5545 5546 5547 5547 5547 5546 5546 5546 5546 5546 5547 5547 5548 5549 5549 5548 5547 5546 5546 5546 5545 5544
5481 5481 5481 5479 5478 5480 5482 5485 5485 5485 5486 5487 5487 5488 5488 5489 5491 5492 5494 5496 5497 5499 5500 5501 5503 5504 5505 5507 5509 5510 5512 5513 5513 5514 5514 5514 5515 5515 5515 5516 5518 5520 5522 5524 5525 5527 5530 5531 5532 5532 5532 5531 5532 5531 5531 5531 5530 5530 5531 5531 5532 5533 5533 5534 5535 5536 5537 5537 5536 5534 5534 5535 5536 5536 5537 5538 5539 5539 5538 5537 5535 5536 5536 5534 5534
5466 5466 5467 5466 5464 5463 5463 5466 5469 5470 5471 5472 5473 5474 5473 5474 5475 5476 5478 5481 5482 5484 5485 5487 5489 5490 5492 5493 5495 5497 5499 5499 5500 5501 5501 5501 5501 5501 5503 5504 5506 5509 5511 5513 5515 5517 5519 5520 5521 5521 5521 5521 5521 5521 5520 5520 5519 5520 5520 5521 5522 5522 5522 5523 5524 5525 5526 5526 5525 5523 5523 5524 5525 5525 5526 5528 5529 5529 5528 5526 5526 5526 5526 5524 5523
5449 5450 5451 5450 5450 5448 5447 5447 5449 5452 5455 5458 5459 5459 5459 5459 5460 5460 5463 5466 5468 5469 5470 5472 5474 5476 5478 5479 5481 5484 5486 5485 5486 5487 5488 5488 5488 5488 5490 5492 5494 5497 5500 5501 5504 5505 5507 5509 5509 5510 5509 5510 5510 5510 5510 5509 5509 5509 5510 5511 5512 5512 5512 5513 5513 5514 5514 5514 5513 5511 5511 5513 5514 5515 5516 5517 5518 5518 5517 5516 5516 5516 5515 5514 5513
5432 5433 5434 5434 5434 5434 5433 5431 5431 5433 5436 5440 5443 5445 5445 5445 5445 5445 5447 5450 5453 5455 5456 5458 5460 5461 5463 5465 5466 5469 5471 5471 5472 5473 5475 5476 5476 5477 5479 5481 5483 5485 5488 5490 5492 5494 5495 5497 5498 5498 5498 5500 5500 5500 5499 5499 5498 5499 5500 5500 5501 5502 5502 5503 5503 5503 5503 5502 5502 5501 5501 5502 5504 5505 5505 5506 5507 5508 5508 5506 5506 5506 5505 5504 5504
5418 5418 5418 5418 5419 5419 5418 5418 5418 5417 5418 5421 5424 5429 5431 5431 5431 5431 5432 5435 5439 5440 5442 5444 5446 5446 5448 5450 5452 5455 5458 5459 5460 5461 5463 5464 5465 5466 5468 5470 5472 5475 5477 5479 5480 5482 5484 5485 5486 5487 5488 5489 5489 5489 5489 5488 5488 5489 5490 5490 5490 5491 5492 5492 5491 5491 5491 5491 5491 5491 5491 5492 5493 5495 5496 5496 5497 5499 5498 5497 5497 5496 5496 5495 5494
5404 5404 5404 5404 5404 5404 5403 5403 5404 5404 5404 5404 5406 5410 5414 5416 5417 5417 5418 5420 5423 5425 5427 5429 5431 5433 5434 5437 5439 5442 5445 5447 5448 5450 5452 5453 5454 5455 5456 5458 5462 5464 5466 5468 5470 5471 5473 5474 5476 5476 5477 5478 5478 5477 5477 5477 5477 5478 5479 5479 5480 5481 5481 5480 5479 5480 5480 5480 5480 5480 5480 5481 5483 5484 5486 5486 5488 5489 5489 5488 5487 5487 5486 5485 5484
5389 5389 5389 5389 5388 5388 5388 5388 5388 5389 5390 5391 5391 5393 5396 5399 5401 5403 5403 5405 5408 5410 5412 5412 5415 5419 5421 5423 5427 5429 5431 5434 5436 5437 5439 5441 5443 5444 5445 5448 5451 5453 5454 5456 5458 5461 5462 5464 5465 5465 5465 5466 5466 5465 5465 5466 5467 5468 5468 5469 5470 5470 5469 5468 5468 5468 5469 5469 5469 5469 5470 5471 5472 5474 5475 5476 5477 5478 5478 5478 5478 5477 5476 5475 5473
5374 5373 5373 5373 5372 5372 5372 5372 5372 5374 5375 5376 5377 5379 5381 5382 5384 5387 5388 5390 5393 5396 5397 5397 5400 5404 5407 5409 5413 5417 5418 5421 5423 5425 5427 5429 5431 5433 5435 5438 5440 5441 5442 5444 5447 5449 5451 5452 5453 5454 5454 5454 5454 5453 5454 5456 5457 5457 5458 5459 5459 5458 5457 5457 5457 5457 5457 5457 5458 5458 5458 5460 5462 5463 5465 5466 5467 5467 5467 5468 5468 5467 5466 5465 5463
5357 5357 5357 5357 5356 5356 5356 5356 5356 5357 5359 5359 5360 5364 5367 5368 5369 5371 5373 5376 5378 5381 5383 5385 5386 5389 5393 5395 5399 5403 5405 5408 5411 5413 5414 5416 5419 5421 5423 5427 5429 5429 5431 5433 5435 5438 5439 5441 5442 5442 5442 5442 5442 5442 5443 5446 5447 5447 5447 5448 5447 5446 5446 5446 5445 5445 5446 5445 5445 5446 5448 5451 5452 5453 5455 5456 5456 5457 5457 5458 5458 5457 5456 5455 5453
5340 5340 5341 5340 5340 5340 5339 5339 5340 5340 5342 5342 5342 5346 5352 5353 5354 5356 5358 5360 5363 5366 5369 5372 5373 5376 5380 5382 5385 5388 5391 5394 5398 5401 5402 5404 5406 5408 5411 5414 5415 5417 5419 5422 5424 5425 5427 5429 5430 5430 5430 5430 5429 5430 5432 5435 5437 5436 5435 5436 5436 5435 5436 5436 5434 5434 5434 5433 5434 5436 5439 5441 5443 5444 5445 5445 5446 5447 5447 5447 5447 5446 5446 5444 5442
5321 5323 5324 5324 5324 5324 5322 5322 5323 5323 5324 5325 5325 5329 5334 5336 5337 5341 5344 5345 5347 5351 5355 5358 5360 5364 5367 5370 5373 5376 5377 5380 5384 5388 5390 5391 5393 5395 5398 5401 5403 5404 5407 5409 5411 5413 5414 5416 5417 5417 5418 5418 5418 5419 5421 5424 5427 5426 5424 5425 5425 5425 5426 5426 5423 5422 5422 5422 5424 5427 5429 5431 5432 5433 5434 5434 5435 5436 5436 5436 5436 5435 5435 5434 5431
5304 5305 5305 5306 5306 5306 5305 5306 5307 5307 5308 5308 5309 5312 5316 5318 5320 5324 5328 5330 5333 5337 5341 5343 5346 5350 5354 5358 5362 5364 5364 5366 5370 5374 5377 5379 5381 5382 5384 5388 5392 5393 5395 5397 5399 5400 5402 5403 5403 5404 5406 5407 5407 5408 5410 5414 5416 5416 5414 5414 5415 5416 5417 5415 5411 5410 5411 5412 5415 5417 5419 5420 5421 5422 5424 5424 5424 5425 5426 5425 5425 5424 5423 5423 5420
5286 5286 5287 5287 5287 5287 5287 5289 5291 5291 5292 5292 5293 5295 5299 5301 5302 5306 5310 5313 5317 5321 5325 5329 5332 5336 5341 5346 5349 5350 5352 5354 5358 5361 5363 5365 5368 5368 5369 5374 5379 5382 5383 5384 5386 5388 5390 5391 5392 5392 5394 5396 5396 5398 5400 5402 5405 5406 5405 5404 5404 5406 5406 5403 5401 5401 5403 5404 5406 5407 5408 5410 5411 5411 5412 5413 5413 5415 5415 5414 5413 5412 5412 5412 5409
5267 5268 5269 5269 5269 5269 5269 5270 5273 5275 5276 5277 5277 5279 5282 5283 5284 5288 5292 5296 5300 5304 5308 5313 5317 5322 5327 5332 5335 5336 5339 5343 5347 5349 5350 5351 5352 5352 5353 5359 5365 5368 5370 5372 5374 5376 5378 5379 5380 5381 5383 5385 5386 5388 5389 5390 5392 5395 5396 5395 5395 5396 5395 5392 5390 5392 5394 5396 5396 5397 5398 5399 5400 5400 5401 5401 5402 5403 5404 5403 5401 5401 5400 5400 5399
5250 5250 5251 5251 5251 5251 5251 5252 5254 5256 5258 5260 5261 5263 5266 5266 5266 5270 5275 5279 5282 5286 5291 5295 5300 5306 5311 5316 5319 5322 5327 5332 5336 5337 5336 5336 5337 5338 5340 5346 5352 5356 5359 5360 5361 5363 5365 5367 5369 5370 5371 5374 5376 5377 5379 5380 5381 5384 5387 5387 5385 5384 5383 5382 5382 5384 5386 5387 5387 5387 5388 5388 5389 5389 5390 5390 5391 5392 5393 5392 5390 5389 5389 5389 5388
5234 5234 5234 5234 5234 5234 5233 5233 5234 5236 5238 5240 5242 5245 5248 5249 5249 5253 5259 5263 5264 5267 5272 5276 5283 5289 5293 5298 5303 5308 5315 5320 5322 5321 5322 5325 5327 5328 5329 5333 5338 5343 5346 5347 5348 5349 5352 5355 5357 5359 5360 5362 5365 5368 5369 5369 5370 5372 5375 5377 5375 5373 5373 5374 5375 5376 5377 5377 5377 5377 5378 5378 5379 5379 5379 5380 5380 5381 5381 5380 5379 5379 5378 5377 5376
5219 5219 5219 5217 5217 5216 5215 5216 5217 5217 5218 5221 5223 5226 5230 5232 5232 5236 5242 5247 5247 5248 5252 5259 5266 5271 5275 5281 5288 5293 5300 5306 5306 5307 5310 5314 5317 5318 5318 5320 5325 5330 5333 5336 5337 5339 5342 5344 5346 5348 5349 5351 5355 5357 5358 5359 5360 5361 5363 5365 5365 5364 5364 5365 5366 5367 5367 5367 5367 5367 5367 5368 5369 5369 5369 5369 5369 5369 5369 5369 5368 5368 5367 5366 5363
5203 5205 5205 5203 5201 5200 5199 5200 5201 5201 5201 5203 5204 5206 5211 5216 5217 5220 5224 5228 5230 5231 5235 5243 5250 5254 5258 5265 5272 5277 5284 5290 5292 5294 5298 5301 5303 5306 5308 5309 5312 5317 5321 5324 5327 5329 5332 5334 5335 5337 5338 5341 5344 5346 5347 5348 5349 5350 5352 5353 5354 5355 5355 5356 5356 5357 5357 5357 5356 5357 5357 5358 5358 5358 5359 5358 5357 5357 5357 5357 5357 5355 5354 5353 5351
5190 5191 5191 5189 5188 5186 5185 5185 5186 5186 5186 5187 5187 5189 5193 5197 5202 5206 5207 5209 5212 5217 5221 5227 5234 5238 5242 5248 5255 5261 5267 5273 5277 5281 5285 5287 5290 5294 5296 5297 5301 5306 5310 5314 5317 5320 5323 5325 5325 5327 5329 5332 5334 5336 5337 5338 5338 5339 5340 5342 5343 5344 5345 5345 5346 5347 5347 5347 5347 5347 5347 5347 5348 5348 5348 5348 5347 5346 5345 5344 5344 5343 5341 5340 5338
5179 5179 5179 5177 5176 5173 5172 5172 5172 5171 5172 5172 5173 5174 5176 5179 5184 5190 5193 5193 5195 5200 5206 5212 5218 5223 5226 5230 5237 5244 5250 5255 5261 5266 5271 5274 5277 5280 5283 5285 5289 5295 5299 5304 5308 5312 5314 5315 5316 5317 5319 5321 5323 5325 5326 5328 5328 5329 5330 5330 5331 5332 5334 5335 5336 5336 5337 5337 5337 5337 5337 5337 5338 5338 5338 5337 5336 5335 5333 5332 5331 5330 5328 5327 5326
5169 5169 5168 5166 5164 5163 5161 5160 5159 5159 5159 5159 5159 5160 5162 5164 5167 5172 5178 5181 5182 5185 5191 5197 5203 5206 5210 5214 5220 5227 5233 5239 5244 5250 5256 5261 5264 5267 5269 5270 5274 5282 5290 5295 5300 5303 5304 5306 5307 5308 5308 5310 5311 5313 5314 5316 5318 5319 5319 5320 5320 5321 5322 5324 5325 5325 5326 5326 5326 5327 5327 5328 5328 5328 5327 5326 5325 5323 5321 5320 5318 5317 5316 5315 5314
5160 5159 5157 5154 5153 5152 5151 5149 5148 5148 5148 5148 5148 5149 5151 5153 5154 5157 5162 5167 5171 5174 5178 5183 5187 5191 5194 5199 5205 5211 5217 5223 5228 5234 5240 5246 5250 5252 5252 5254 5261 5272 5282 5287 5291 5294 5295 5297 5298 5298 5298 5298 5300 5301 5303 5305 5307 5308 5309 5310 5311 5311 5312 5313 5313 5314 5315 5315 5316 5317 5317 5318 5317 5317 5316 5314 5313 5311 5310 5308 5307 5306 5305 5304 5303
5151 5148 5146 5144 5142 5141 5140 5138 5138 5138 5138 5138 5139 5139 5140 5141 5143 5145 5149 5153 5158 5163 5167 5170 5173 5176 5180 5185 5191 5197 5201 5206 5212 5218 5224 5229 5234 5236 5237 5242 5251 5261 5270 5277 5281 5284 5285 5286 5287 5287 5287 5287 5288 5290 5292 5294 5296 5298 5299 5301 5302 5303 5303 5304 5304 5304 5305 5306 5306 5307 5307 5307 5307 5306 5304 5303 5301 5300 5299 5297 5296 5295 5293 5292 5291
5142 5139 5137 5134 5132 5131 5130 5129 5128 5128 5129 5129 5130 5130 5131 5132 5133 5135 5138 5141 5146 5151 5155 5159 5161 5164 5168 5174 5178 5182 5186 5191 5196 5203 5209 5213 5217 5221 5226 5233 5240 5248 5257 5265 5270 5273 5275 5275 5275 5275 5275 5275 5277 5279 5282 5284 5286 5288 5290 5292 5293 5293 5294 5295 5295 5296 5296 5296 5296 5297 5296 5296 5296 5295 5293 5292 5290 5289 5288 5286 5285 5284 5282 5280 5279
5134 5132 5129 5127 5124 5123 5121 5120 5120 5120 5120 5121 5122 5122 5123 5124 5124 5126 5128 5132 5135 5140 5144 5148 5151 5154 5158 5162 5165 5169 5173 5177 5182 5190 5196 5200 5204 5209 5215 5221 5227 5233 5243 5252 5259 5262 5262 5262 5263 5263 5263 5263 5265 5267 5270 5272 5275 5277 5279 5280 5281 5283 5284 5285 5285 5285 5286 5286 5286 5286 5285 5286 5286 5284 5282 5281 5280 5279 5277 5276 5274 5273 5271 5269 5268
5129 5126 5123 5120 5118 5116 5114 5113 5113 5113 5113 5114 5114 5115 5116 5116 5117 5119 5121 5123 5127 5130 5134 5138 5142 5145 5149 5152 5154 5158 5162 5166 5171 5179 5185 5189 5192 5197 5202 5208 5213 5220 5229 5239 5246 5249 5249 5249 5249 5249 5248 5250 5253 5256 5258 5261 5264 5266 5267 5269 5270 5271 5272 5273 5273 5273 5274 5274 5274 5274 5274 5274 5274 5273 5272 5271 5270 5268 5267 5265 5263 5262 5261 5259 5257
5124 5121 5118 5115 5112 5110 5109 5108 5107 5107 5107 5108 5108 5109 5109 5110 5111 5112 5114 5116 5119 5123 5126 5129 5133 5137 5140 5142 5145 5148 5152 5157 5162 5167 5172 5176 5180 5184 5189 5195 5201 5209 5218 5226 5232 5235 5235 5234 5232 5233 5235 5238 5242 5245 5248 5250 5252 5254 5256 5257 5259 5260 5261 5261 5262 5262 5262 5263 5262 5263 5263 5263 5262 5262 5261 5260 5259 5258 5257 5255 5253 5252 5250 5249 5247
5121 5117 5114 5111 5109 5107 5105 5104 5103 5103 5103 5103 5103 5103 5104 5104 5105 5107 5109 5111 5113 5116 5119 5122 5126 5129 5131 5134 5136 5139 5143 5148 5152 5156 5161 5166 5169 5173 5178 5184 5191 5199 5206 5213 5218 5221 5220 5217 5216 5219 5224 5228 5231 5234 5237 5238 5240 5242 5244 5246 5248 5249 5249 5250 5251 5251 5251 5251 5252 5252 5252 5252 5251 5250 5250 5249 5249 5248 5247 5245 5244 5242 5241 5239 5237
5118 5115 5112 5109 5107 5104 5102 5101 5100 5100 5099 5099 5100 5099 5100 5100 5101 5102 5104 5106 5108 5110 5113 5116 5119 5122 5124 5127 5129 5132 5136 5140 5144 5147 5152 5156 5160 5164 5169 5175 5181 5188 5194 5200 5204 5204 5202 5201 5204 5209 5215 5218 5221 5223 5225 5227 5228 5231 5233 5235 5236 5238 5238 5239 5239 5239 5240 5241 5241 5241 5242 5241 5240 5240 5239 5239 5239 5239 5237 5236 5235 5233 5231 5229 5226
5116 5113 5111 5108 5106 5104 5101 5100 5099 5099 5099 5099 5099 5098 5099 5099 5099 5100 5101 5103 5105 5107 5109 5111 5114 5116 5119 5121 5124 5127 5131 5134 5137 5140 5144 5148 5152 5156 5160 5166 5171 5177 5182 5186 5187 5187 5188 5192 5197 5201 5205 5208 5210 5212 5213 5215 5218 5220 5222 5224 5225 5226 5227 5228 5228 5229 5229 5230 5231 5232 5232 5231 5231 5230 5229 5229 5229 5229 5228 5226 5225 5223 5221 5219 5217
5116 5113 5110 5108 5106 5104 5102 5101 5101 5100 5100 5100 5100 5099 5099 5099 5099 5100 5101 5102 5103 5105 5106 5108 5110 5112 5115 5117 5119 5122 5126 5128 5130 5133 5136 5140 5144 5148 5152 5156 5161 5165 5169 5172 5173 5176 5180 5185 5189 5192 5195 5198 5200 5201 5203 5205 5207 5209 5211 5213 5214 5216 5217 5218 5218 5219 5220 5221 5222 5222 5222 5222 5222 5221 5221 5220 5220 5219 5218 5217 5215 5213 5211 5209 5207
5117 5114 5111 5108 5107 5105 5104 5103 5102 5102 5102 5102 5101 5101 5101 5100 5100 5101 5101 5102 5103 5104 5105 5107 5108 5110 5112 5114 5116 5119 5121 5123 5125 5127 5130 5133 5136 5140 5143 5148 5151 5155 5158 5162 5165 5169 5173 5177 5180 5183 5186 5188 5190 5192 5194 5195 5197 5199 5201 5203 5205 5206 5207 5208 5209 5210 5211 5212 5213 5213 5213 5213 5213 5212 5212 5211 5211 5210 5209 5207 5205 5204 5202 5199 5197
5118 5115 5112 5110 5108 5107 5105 5105 5104 5104 5103 5103 5103 5102 5102 5102 5102 5102 5102 5103 5104 5104 5105 5107 5108 5109 5111 5113 5114 5116 5117 5118 5120 5122 5125 5127 5130 5133 5137 5140 5144 5148 5152 5156 5159 5163 5166 5169 5172 5174 5177 5179 5181 5183 5185 5186 5188 5190 5192 5194 5196 5198 5199 5199 5201 5202 5203 5204 5204 5205 5205 5205 5204 5204 5203 5202 5201 5201 5200 5198 5196 5194 5192 5190 5189
5119 5116 5114 5112 5110 5108 5107 5106 5105 5105 5104 5104 5104 5104 5104 5103 5103 5103 5104 5104 5105 5105 5106 5107 5108 5109 5111 5112 5113 5114 5114 5115 5117 5119 5121 5124 5127 5129 5132 5136 5140 5143 5147 5151 5154 5157 5159 5162 5164 5167 5169 5171 5173 5175 5177 5179 5181 5183 5185 5187 5188 5190 5191 5192 5193 5195 5195 5196 5197 5197 5197 5197 5196 5195 5195 5193 5192 5192 5191 5189 5187 5186 5184 5182 5180
5120 5118 5115 5113 5111 5110 5108 5107 5106 5106 5105 5105 5105 5105 5105 5105 5104 5104 5104 5105 5105 5106 5106 5107 5108 5109 5110 5111 5112 5112 5112 5114 5116 5118 5120 5123 5125 5128 5130 5134 5137 5140 5143 5146 5149 5151 5153 5156 5158 5161 5163 5165 5167 5169 5171 5173 5175 5177 5179 5181 5182 5183 5185 5186 5187 5188 5188 5189 5189 5190 5190 5189 5188 5187 5186 5185 5184 5183 5182 5180 5179 5178 5176 5174 5172
5122 5119 5117 5115 5113 5111 5110 5108 5107 5107 5106 5106 5105 5105 5105 5105 5105 5105 5105 5105 5105 5105 5106 5106 5108 5109 5110 5111 5112 5112 5112 5114 5116 5118 5120 5122 5124 5126 5129 5131 5134 5137 5140 5142 5144 5146 5149 5151 5153 5156 5157 5160 5162 5164 5165 5167 5169 5171 5173 5175 5176 5177 5178 5179 5180 5181 5181 5182 5183 5183 5182 5182 5180 5179 5178 5177 5175 5175 5174 5173 5172 5170 5168 5166 5163
5125 5122 5120 5117 5115 5113 5111 5110 5108 5107 5106 5106 5105 5105 5105 5104 5104 5104 5104 5104 5104 5104 5105 5106 5107 5108 5109 5110 5111 5112 5113 5115 5116 5118 5119 5121 5123 5125 5127 5129 5132 5134 5136 5138 5140 5143 5145 5147 5149 5151 5153 5155 5157 5159 5160 5162 5164 5166 5167 5168 5169 5170 5171 5172 5173 5174 5175 5175 5176 5176 5175 5174 5173 5172 5170 5169 5168 5168 5167 5165 5164 5162 5160 5157 5154
5130 5126 5123 5121 5118 5116 5114 5112 5110 5108 5107 5106 5105 5105 5104 5104 5103 5103 5103 5103 5103 5104 5104 5105 5106 5107 5108 5109 5111 5112 5113 5115 5116 5117 5118 5120 5122 5124 5126 5128 5130 5132 5134 5136 5138 5140 5142 5144 5146 5147 5149 5151 5152 5154 5155 5157 5158 5160 5161 5162 5163 5164 5165 5166 5167 5168 5168 5169 5169 5168 5168 5167 5166 5165 5164 5163 5162 5161 5160 5158 5155 5153 5151 5148 5145